KT4FD Weather Reports


Display with metric or nautical units.
time (UTC)temp
F
wind
direction
speed
MPH
gust
MPH
rain 1hr
in
rain 24hr
in
rain mn
in
humidity
%
barometer
mb
20260904103003 69 320 0.0 0.0 0.00 0.00 0.00 91 1018.3
20260904102003 70 320 0.0 0.0 0.00 0.00 0.00 91 1018.2
20260904101003 70 320 0.0 0.0 0.00 0.00 0.00 91 1018.2
20260904100003 70 320 0.0 0.0 0.00 0.00 0.00 91 1018.0
20260904095003 70 320 0.0 0.0 0.00 0.00 0.00 91 1018.0
20260904094003 70 320 0.0 0.0 0.00 0.00 0.00 91 1017.9
20260904093004 70 320 0.0 0.0 0.00 0.00 0.00 91 1017.8
20260904081003 71 320 0.0 0.0 0.00 0.00 0.00 91 1017.7
20260904080003 71 320 0.0 0.0 0.00 0.00 0.00 91 1017.6
20260904075004 71 320 0.0 1.0 0.00 0.00 0.00 91 1017.7
20260904074004 72 320 0.0 0.0 0.00 0.00 0.00 90 1017.8
20260904073003 72 320 0.0 0.0 0.00 0.00 0.00 90 1017.8
20260904072004 73 320 0.0 0.0 0.00 0.00 0.00 90 1017.6
20260904061004 73 320 0.0 0.0 0.00 0.00 0.00 90 1018.0
20260904060004 73 320 0.0 0.0 0.00 0.00 0.00 90 1018.0
20260904055004 73 320 0.0 0.0 0.00 0.00 0.00 90 1018.1
20260904054003 74 320 0.0 0.0 0.00 0.00 0.00 89 1018.2
20260904053004 74 320 0.0 0.0 0.00 0.00 0.00 89 1018.3
20260904052004 74 320 0.0 0.0 0.00 0.00 0.00 89 1018.4
20260904051004 74 320 0.0 0.0 0.00 0.00 0.00 89 1018.5
20260904041004 74 320 0.0 0.0 0.00 0.00 0.00 89 1018.4
20260904040003 74 320 0.0 0.0 0.00 0.00 0.00 89 1018.4
20260904035003 74 320 0.0 0.0 0.00 0.00 0.00 89 1018.5
20260904034003 74 320 0.0 0.0 0.00 0.00 0.00 89 1018.6
20260904033003 74 320 0.0 1.0 0.00 0.00 0.00 90 1018.6
20260904032003 74 320 0.0 2.0 0.00 0.00 0.00 90 1018.7
20260904021003 76 320 0.0 0.0 0.00 0.00 0.00 89 1018.4
20260904020003 76 320 0.0 1.0 0.00 0.00 0.00 89 1018.3
20260904015003 76 320 0.0 1.0 0.00 0.00 0.00 88 1018.3
20260904014004 77 320 0.0 6.0 0.00 0.00 0.00 88 1018.1
20260904013003 77 320 0.0 0.0 0.00 0.00 0.00 87 1017.9
20260904012003 78 320 0.0 0.0 0.00 0.00 0.00 87 1017.9
20260904011003 78 320 0.0 0.0 0.00 0.00 0.00 86 1017.7
20260903231003 91 320 0.0 0.0 0.00 0.00 0.00 67 1016.3
20260903230002 91 320 0.0 0.0 0.00 0.00 0.00 62 1016.4
20260903225002 92 320 0.0 0.0 0.00 0.00 0.00 61 1016.4
20260903224002 92 320 0.0 0.0 0.00 0.00 0.00 60 1016.4
20260903223002 92 324 0.0 0.0 0.00 0.00 0.00 60 1016.7
20260903222003 92 324 0.0 2.0 0.00 0.00 0.00 61 1016.6
20260903211002 92 324 0.0 3.0 0.00 0.00 0.00 58 1016.8
20260903210002 92 324 1.0 3.0 0.00 0.00 0.00 59 1016.9
20260903205002 92 324 2.0 5.0 0.00 0.00 0.00 57 1017.1
20260903204002 91 324 3.0 3.0 0.00 0.00 0.00 60 1017.1
20260903203002 91 324 0.0 2.0 0.00 0.00 0.00 60 1017.2
20260903202003 90 324 1.0 3.0 0.00 0.00 0.00 60 1017.3
20260903151003 86 30 0.0 0.0 0.00 0.00 0.00 71 1019.6
20260903140003 79 30 0.0 0.0 0.00 0.00 0.00 78 1019.6
20260903135002 77 30 0.0 0.0 0.00 0.00 0.00 88 1019.6
20260903134002 76 30 0.0 0.0 0.00 0.00 0.00 90 1019.8
20260903133002 74 30 0.0 0.0 0.00 0.00 0.00 90 1019.9
20260903132003 73 30 0.0 0.0 0.00 0.00 0.00 90 1019.9
20260903131003 72 30 0.0 0.0 0.00 0.00 0.00 90 1020.1
20260903130003 71 30 0.0 0.0 0.00 0.00 0.00 90 1020.1
20260903120002 69 30 0.0 0.0 0.00 0.00 0.00 91 1020.1
20260903115002 69 30 0.0 0.0 0.00 0.00 0.00 91 1019.8
20260903114003 69 30 0.0 0.0 0.00 0.00 0.00 91 1019.7
20260903113003 69 30 0.0 0.0 0.00 0.00 0.00 91 1019.7
20260903112003 69 30 0.0 0.0 0.00 0.00 0.00 91 1019.4
20260903111002 69 30 0.0 0.0 0.00 0.00 0.00 91 1019.2
20260903110002 69 30 0.0 0.0 0.00 0.00 0.00 91 1019.2
20260903105003 70 30 0.0 0.0 0.00 0.00 0.00 91 1019.2
20260903104003 70 30 0.0 0.0 0.00 0.00 0.00 91 1019.1